ECHOSTAR 23 (42070 NORAD) Tracking and Keplerian Element Data

This shows tracking and keplerian element data for the satellite.

Feedback or suggestion? Click here.




ElementValue
Catalog42070
NameECHOSTAR 23
Epoch Orbit2650
Epoch Day159.4549678
Epoch Year2024
RAAN0.9044
Inclination0.0228
Eccentricity0.0001998
Argument of Perigee80.8778
Mean Anonmoly228.4348
Mean Motion1.00269829
Decay Rate-5.6E-07
L11 42070U 17014A 24159.45496780 -.00000056 00000+0 00000+0 0 9990
L22 42070 0.0228 0.9044 0001998 80.8778 228.4348 1.00269829 26500



Live tracking and technical data element details for ECHOSTAR 23 (NORAD 42070). ECHOSTAR 23 can be tracked NOW for your location showing map with azimuth and elevation plus other details from your city location.







IsCatalogInMostPopularTable: catalog: 42070, numindb: 840
Update: records affected: 1



GetName: 42070 ECHOSTAR 23

Hit Count: updated at: Tue, 17 Sep 2024 13:01:33 GMT